Weather History for Thedford, NE

Change the Weather History Date:

Saturday, July 14, 2012

  Actual Average (KLBF) Record (KLBF)
Temperature  
Mean Temperature 80 °F 75 °F  
Max Temperature 99 °F 89 °F 105 °F (1877)
Min Temperature 61 °F 61 °F 43 °F (1990)
Degree Days  
Heating Degree Days 0 0  
Month to date heating degree days 0  
Since 1 June heating degree days 51  
Since 1 July heating degree days 0  
Cooling Degree Days 14 10  
Month to date cooling degree days 126  
Year to date cooling degree days 292  
Since 1 June cooling degree days 264  
Growing Degree Days 30 (Base 50)    
Moisture  
Dew Point 52 °F    
Average Humidity 45    
Maximum Humidity 89    
Minimum Humidity 11    
Precipitation  
Precipitation 0.00 in 0.10 in 2.10 in (1879)
Month to date precipitation 1.31  
Year to date precipitation 12.17  
Snow  
Snow 0.00 in 0.00 in 0.00 in (2002)
Month to date snowfall 0.0  
Since 1 June snowfall 0.0  
Since 1 July snowfall 0.0  
Snow Depth -    
Sea Level Pressure  
Sea Level Pressure 30.07 in    
Wind  
Wind Speed 4 mph (SE)    
Max Wind Speed 18 mph    
Max Gust Speed 28 mph    
Visibility 10 miles    
Events      
T = Trace of Precipitation, MM = Missing Value Source: NWS Daily Summary

Daily Weather History Graph

Daily Weather History Graph

Search for Another Location

Airport:

Trip Planner

Search our weather history database for the weather conditions in past years. The results will help you decide how hot, cold, wet, or windy it might be!

Date:

Astronomy

Jul. 14, 2012 Rise Set
Actual Time 6:19 AM CDT 9:16 PM CDT
Civil Twilight 5:46 AM CDT 9:49 PM CDT
Nautical Twilight 5:04 AM CDT 10:31 PM CDT
Astronomical Twilight 4:14 AM CDT 11:20 PM CDT
Moon 2:35 AM CDT (7/14) 5:42 PM CDT (7/14)
Length of Visible Light 16h 03m
Length of Day
14h 56m
Waning Crescent, 18% of the Moon is Illuminated
Jul 14
Waning Crescent
Jul 18
New
Jul 26
First Quarter
Aug 1
Full
Aug 9
Last Quarter

Hourly Weather History & Observations

Time (CDT) Temp. Heat Index Dew Point Humidity Pressure Visibility Wind Dir Wind Speed Gust Speed Precip Events Conditions
12:15 AM 70.5 °F - 49.5 °F 47% 30.08 in 10.0 mi Calm Calm - N/A   Clear
12:35 AM 70.2 °F - 50.7 °F 50% 30.08 in 10.0 mi Calm Calm - N/A   Clear
12:55 AM 70.0 °F - 52.7 °F 54% 30.08 in 10.0 mi Calm Calm - N/A   Clear
1:15 AM 67.5 °F - 54.0 °F 62% 30.08 in 10.0 mi Calm Calm - N/A   Clear
1:35 AM 68.0 °F - 55.0 °F 63% 30.08 in 10.0 mi Calm Calm - N/A   Clear
1:55 AM 69.4 °F - 56.1 °F 62% 30.08 in 10.0 mi Calm Calm - N/A   Clear
2:15 AM 66.6 °F - 55.4 °F 67% 30.08 in 10.0 mi Calm Calm - N/A   Clear
2:35 AM 68.7 °F - 59.4 °F 72% 30.08 in 10.0 mi South 6.9 mph - N/A   Clear
2:55 AM 66.7 °F - 57.9 °F 73% 30.07 in 10.0 mi Calm Calm - N/A   Clear
3:15 AM 66.0 °F - 58.1 °F 76% 30.08 in 10.0 mi Calm Calm - N/A   Clear
3:35 AM 65.7 °F - 57.7 °F 76% 30.07 in 10.0 mi East 4.6 mph - N/A   Clear
3:55 AM 64.2 °F - 57.7 °F 79% 30.08 in 10.0 mi NE 4.6 mph - N/A   Clear
4:15 AM 63.7 °F - 57.4 °F 80% 30.07 in 10.0 mi ESE 3.5 mph - N/A   Clear
4:35 AM 62.8 °F - 57.7 °F 84% 30.07 in 10.0 mi Calm Calm - N/A   Clear
4:55 AM 63.0 °F - 58.1 °F 84% 30.07 in 10.0 mi NE 3.5 mph - N/A   Clear
5:15 AM 63.1 °F - 58.8 °F 86% 30.07 in 10.0 mi NE 3.5 mph - N/A   Clear
5:35 AM 62.1 °F - 58.3 °F 87% 30.08 in 10.0 mi Calm Calm - N/A   Clear
5:55 AM 61.9 °F - 58.6 °F 89% 30.08 in 10.0 mi Calm Calm - N/A   Clear
6:15 AM 63.0 °F - 58.1 °F 84% 30.09 in 10.0 mi Calm Calm - N/A   Clear
6:35 AM 61.5 °F - 57.7 °F 87% 30.09 in 10.0 mi Calm Calm - N/A   Clear
7:15 AM 61.9 °F - 57.6 °F 86% 30.09 in 10.0 mi Calm Calm - N/A   Clear
7:35 AM 63.7 °F - 59.0 °F 85% 30.10 in 10.0 mi Calm Calm - N/A   Clear
7:55 AM 66.7 °F - 59.9 °F 79% 30.10 in 10.0 mi Calm Calm - N/A   Clear
8:15 AM 69.1 °F - 60.8 °F 75% 30.10 in 10.0 mi Calm Calm - N/A   Clear
8:35 AM 71.6 °F - 61.0 °F 69% 30.11 in 10.0 mi NE 3.5 mph - N/A   Clear
8:55 AM 73.6 °F - 61.3 °F 65% 30.11 in 10.0 mi ENE 3.5 mph - N/A   Clear
9:15 AM 75.9 °F - 61.7 °F 61% 30.11 in 10.0 mi NE 3.5 mph - N/A   Clear
9:35 AM 77.9 °F - 60.1 °F 54% 30.12 in 10.0 mi Calm Calm - N/A   Clear
9:55 AM 79.3 °F - 60.6 °F 53% 30.12 in 10.0 mi Calm Calm - N/A   Clear
10:15 AM 82.0 °F 82.5 °F 60.8 °F 48% 30.12 in 10.0 mi Calm Calm - N/A   Clear
10:35 AM 84.4 °F 84.0 °F 59.2 °F 42% 30.12 in 10.0 mi Calm Calm - N/A   Clear
10:55 AM 87.4 °F 85.9 °F 55.9 °F 34% 30.11 in 10.0 mi SE 4.6 mph - N/A   Clear
11:15 AM 89.4 °F 87.3 °F 54.0 °F 30% 30.11 in 10.0 mi SSE 3.5 mph - N/A   Clear
11:35 AM 91.2 °F - 52.2 °F 26% 30.11 in 10.0 mi South 9.2 mph - N/A   Clear
11:55 AM 92.5 °F - 50.9 °F 24% 30.11 in 10.0 mi SE 11.5 mph - N/A   Clear
12:15 PM 93.0 °F - 49.1 °F 22% 30.10 in 10.0 mi ESE 4.6 mph - N/A   Clear
12:35 PM 93.6 °F - 47.8 °F 21% 30.10 in 10.0 mi ESE 11.5 mph - N/A   Clear
12:55 PM 94.8 °F - 48.0 °F 20% 30.10 in 10.0 mi SE 10.4 mph - N/A   Clear
1:15 PM 95.0 °F - 46.2 °F 19% 30.10 in 10.0 mi SE 11.5 mph 19.6 mph N/A   Clear
1:35 PM 95.9 °F - 46.8 °F 19% 30.09 in 10.0 mi ESE 11.5 mph 20.7 mph N/A   Clear
1:55 PM 95.0 °F - 45.7 °F 18% 30.08 in 10.0 mi ESE 4.6 mph - N/A   Clear
2:15 PM 96.1 °F - 42.8 °F 16% 30.07 in 10.0 mi East 12.7 mph 17.3 mph N/A   Clear
2:35 PM 95.7 °F - 39.6 °F 14% 30.07 in 10.0 mi ESE 9.2 mph 13.8 mph N/A   Clear
2:55 PM 96.8 °F - 40.3 °F 14% 30.06 in 10.0 mi South 4.6 mph - N/A   Clear
3:15 PM 97.3 °F - 40.8 °F 14% 30.06 in 10.0 mi ENE 11.5 mph 18.4 mph N/A   Clear
3:35 PM 96.8 °F - 41.0 °F 15% 30.05 in 10.0 mi SE 17.3 mph 24.2 mph N/A   Clear
3:55 PM 97.9 °F - 41.2 °F 14% 30.05 in 10.0 mi SSE 9.2 mph - N/A   Clear
4:15 PM 97.2 °F - 38.1 °F 13% 30.04 in 10.0 mi SE 11.5 mph 24.2 mph N/A   Clear
4:35 PM 98.1 °F - 34.9 °F 11% 30.04 in 10.0 mi SE 9.2 mph - N/A   Clear
4:55 PM 97.7 °F - 37.2 °F 12% 30.03 in 10.0 mi South 10.4 mph 17.3 mph N/A   Clear
5:15 PM 97.9 °F - 40.6 °F 14% 30.03 in 10.0 mi SSE 11.5 mph 18.4 mph N/A   Clear
5:35 PM 95.7 °F - 45.9 °F 18% 30.02 in 10.0 mi SSE 10.4 mph 18.4 mph N/A   Clear
5:55 PM 96.8 °F - 46.9 °F 18% 30.02 in 10.0 mi SE 10.4 mph 20.7 mph N/A   Clear
6:15 PM 97.0 °F - 47.5 °F 18% 30.01 in 10.0 mi SE 12.7 mph 27.6 mph N/A   Scattered Clouds
6:35 PM 96.8 °F - 48.9 °F 20% 30.01 in 10.0 mi SE 18.4 mph 24.2 mph N/A   Scattered Clouds
6:55 PM 95.2 °F - 48.4 °F 20% 30.01 in 10.0 mi SE 16.1 mph - N/A   Scattered Clouds
7:15 PM 94.5 °F - 48.4 °F 21% 30.01 in 10.0 mi SSE 12.7 mph - N/A   Scattered Clouds
7:35 PM 93.7 °F - 47.8 °F 21% 30.00 in 10.0 mi SSE 16.1 mph - N/A   Scattered Clouds
7:55 PM 93.0 °F - 48.2 °F 21% 30.00 in 10.0 mi SSE 15.0 mph 19.6 mph N/A   Clear
8:15 PM 92.3 °F - 46.8 °F 21% 30.00 in 10.0 mi SSE 12.7 mph - N/A   Clear
8:35 PM 90.7 °F - 47.3 °F 22% 30.00 in 10.0 mi SSE 9.2 mph - N/A   Clear
8:55 PM 88.2 °F - 50.0 °F 27% 30.01 in 10.0 mi SSE 9.2 mph - N/A   Clear
9:15 PM 85.8 °F - 52.0 °F 31% 30.02 in 10.0 mi SSE 9.2 mph - N/A   Clear
9:35 PM 84.2 °F - 52.7 °F 34% 30.02 in 10.0 mi SSE 8.1 mph - N/A   Clear
9:55 PM 82.0 °F 81.3 °F 54.0 °F 38% 30.03 in 10.0 mi SE 5.8 mph - N/A   Clear
10:15 PM 82.0 °F 81.7 °F 56.8 °F 42% 30.04 in 10.0 mi SE 10.4 mph - N/A   Clear
10:55 PM 80.2 °F 80.8 °F 59.0 °F 48% 30.05 in 10.0 mi SSE 10.4 mph - N/A   Clear
11:15 PM 79.9 °F - 58.5 °F 48% 30.05 in 10.0 mi SSE 10.4 mph - N/A   Clear
11:35 PM 78.8 °F - 58.8 °F 50% 30.05 in 10.0 mi SSE 9.2 mph - N/A   Clear
11:55 PM 77.9 °F - 59.0 °F 52% 30.05 in 10.0 mi SSE 9.2 mph - N/A   Clear